Regional Weather Roundup
Issued by NWS

Home | Current Version | Previous Version | Text Only | Print | Product List | Glossary Off
Versions: 1 2 3 4 5 6 7 8 9 10 11 12 13 14 15 16 17 18 19 20 21 22 23 24 25 26 27 28 29 30 31 32 33 34 35 36 37 38 39 40 41 42 43 44 45 46 47 48 49 50

000
ASUS43 KMPX 260710
RWRMN
WEATHER ROUNDUP FOR MINNESOTA
NATIONAL WEATHER SERVICE TWIN CITIES/CHANHASSEN MN
100 AM CST SUN FEB 26 2017


NOTE: "FAIR" INDICATES FEW OR NO CLOUDS BELOW 12,000 FEET WITH NO
SIGNIFICANT WEATHER AND/OR OBSTRUCTIONS TO VISIBILITY. N/A MEANS
CURRENT SKY AND/OR WEATHER CONDITIONS ARE NOT AVAILABLE.

MNZ060>063-068>070-260800-
   Twin Cities Metro

CITY           SKY/WX    TMP DP  RH WIND       PRES   REMARKS
TWIN CITIES    MOCLDY    26  14  60 SW8       29.79F WCI  18
ST PAUL        CLOUDY    25  16  68 S7        29.81F WCI  17
CRYSTAL        MOCLDY    25  14  63 S9        29.76F WCI  15
BLAINE         MOCLDY    27  18  69 S14       29.77F WCI  15
LAKEVILLE      CLEAR     23  16  74 SW5       29.80F WCI  17
EDEN PRAIRIE   PTCLDY    24  16  71 S14       29.78F WCI  12
SOUTH ST PAUL  PTCLDY    26  16  68 S6        29.80F WCI  19
LAKE ELMO      FAIR      27  19  74 S9        29.80F WCI  17
$$
MNZ001>005-007-008-013>017-022>024-027-028-260800-
   Northwest Minnesota

CITY           SKY/WX    TMP DP  RH WIND       PRES   REMARKS
BEMIDJI        CLOUDY    17  15  90 CALM      29.66S
HALLOCK        PTCLDY    12   9  85 NW7       29.74R WCI   2
ROSEAU         PTCLDY    12   9  85 W5        29.70R HAZE    WCI   4
WARROAD        CLEAR     10   7  85 W5        29.69S WCI   2
THIEF RVR FALL LGT SNOW  14  10  84 N8        29.71R FOG     WCI   3
CROOKSTON      LGT SNOW  16  12  86 N12       29.73R WCI   3
FOSSTON        CLOUDY    18  12  79 N7        29.68S WCI   8
DETROIT LAKES  PTCLDY    21  21 100 SW5       29.67F WCI  15
MOORHEAD       CLEAR     21  19  93 CALM      29.69F
PARK RAPIDS    FOG       19  15  84 NW3       29.65F VSB 1/4
MAHNOMEN       FAIR      18  16  92 CALM      29.67S
$$
MNZ006-009>011-018-025>026-260800-
   North Central Minnesota

CITY           SKY/WX    TMP DP  RH WIND       PRES   REMARKS
BAUDETTE       FLURRIES  12   5  73 NW7       29.66S WCI   1
FLAG ISLAND    MOCLDY    10   3  72 NW14      29.68R WCI  -5
INTL FALLS     MOCLDY    11   6  81 W6        29.66S WCI   1
WASKISH        MOCLDY    10  10 100 W3        29.68S
BIG FORK       PTCLDY    16  12  86 CALM      29.66S
LONGVILLE      LGT SNOW  25  23  93 CALM      29.66F
GRAND RAPIDS   LGT SNOW  24  21  88 CALM      29.67F FOG
CRANE LAKE     PTCLDY    12  10  92 CALM      29.69S
ORR            CLOUDY    18  10  73 CALM      29.64S
COOK           CLOUDY    21  16  79 W5        29.66F WCI  15
WALKER         CLOUDY    22  19  87 N3        29.65F
$$
MNZ012-019>021-037-260800-
   Northeast Minnesota

CITY           SKY/WX    TMP DP  RH WIND       PRES   REMARKS
DULUTH         LGT SNOW  26  24  92 SW3       29.65F VSB 3/4
ELY            FLURRIES  19  18  93 CALM      29.64F
HIBBING        LGT SNOW  21  20  96 CALM      29.65F FOG
EVELETH        LGT SNOW  22  20  91 CALM      29.66F
DULUTH HARBOR  LGT SNOW  27  25  93 CALM      29.72F
TWO HARBORS    LGT SNOW  27  21  80 CALM      29.66F
SILVER BAY     MIX PCPN  19  18  93 CALM      29.66F
GRAND MARAIS     N/A     24  18  77 W5        29.70F WCI  18
G MARAIS ARPRT FLURRIES  12   9  85 CALM      29.63S
$$
MNZ029>031-032-039>041-046>048-054>057-064-260800-
   West Central Minnesota

CITY           SKY/WX    TMP DP  RH WIND       PRES   REMARKS
FERGUS FALLS   FOG       19  19 100 CALM      29.74F VSB<1/4
WHEATON        PTCLDY    21  19  93 SW3       29.73F
MORRIS         CLOUDY    27  25  93 CALM      29.70S
ALEXANDRIA     CLOUDY    27  24  89 W3        29.68F
ELBOW LAKE     SNOW      14  13  95 CALM      29.70S VSB 1/4
WADENA         FOG       12  12 100 CALM      29.67S VSB<1/4
GLENWOOD       CLOUDY    27  23  86 SW12      29.69F WCI  16
APPLETON       CLEAR     27  21  80 SW7       29.72S WCI  19
BENSON         CLOUDY    28  21  74 W6        29.73F WCI  22
ORTONVILLE     CLEAR     27  23  86 CALM      29.71S
MADISON        CLOUDY    28  25  86 W10       29.72S WCI  19
WILLMAR        MOCLDY    28  25  86 SW7       29.74F WCI  21
$$
MNZ033>034-036-042>043-049>051-058-059-260800-
   Central Minnesota

CITY           SKY/WX    TMP DP  RH WIND       PRES   REMARKS
ST CLOUD       FLURRIES  26  20  77 SW14      29.72F WCI  14
SAUK CENTRE    CLOUDY    27  22  79 SW12      29.69F WCI  17
PAYNESVILLE    CLOUDY    26  22  85 S10       29.72F WCI  16
AITKIN         LGT SNOW  28  23  80 SW3       29.66F
PINE RIVER     MIX PCPN  23  23 100 CALM      29.70F
BRAINERD       LGT SNOW  26  24  92 SW3       29.68S FOG
STAPLES        FLURRIES  21  21 100 CALM      29.67F
LONG PRAIRIE   CLOUDY    28  21  74 S12G17    29.68F WCI  18
LITTLE FALLS   CLOUDY    28  21  74 SW9       29.71S WCI  20
LITCHFIELD     CLOUDY    27  21  80 CALM      29.74F
BUFFALO        CLOUDY    25  17  72 S8        29.77F WCI  16
MAPLE LAKE     LGT SNOW  27  21  80 S6        29.75F WCI  20
HUTCHINSON     LGT SNOW  26  20  80 S8        29.76F WCI  17
$$
MNZ037-044-045-052-053-260800-
   East Central Minnesota

CITY           SKY/WX    TMP DP  RH WIND       PRES   REMARKS
PRINCETON      CLOUDY    27  18  69 S9G18     29.73F WCI  17
MORA           CLOUDY    27  19  74 SW12G17   29.74F WCI  16
CAMBRIDGE      CLOUDY    28  18  64 S8        29.73F WCI  20
RUSH CITY      CLOUDY    27  18  69 S8        29.75F WCI  18
MOOSE LAKE     LGT SNOW  28  23  80 SW8       29.68F WCI  20
HINCKLEY       CLOUDY    28  23  80 S9        29.73F WCI  20
CLOQUET        LGT SNOW  25  23  93 S3        29.67F VSB 1
MCGREGOR       CLOUDY    28  27  93 SW6       29.67F WCI  22
$$
MNZ071>073-080-081-089-090-097-098-260800-
   Southwest Minnesota

CITY           SKY/WX    TMP DP  RH WIND       PRES   REMARKS
MONTEVIDEO     PTCLDY    27  21  80 W7        29.74F WCI  19
GRANITE FALLS  CLOUDY    29  23  79 SW10      29.75F WCI  19
CANBY          CLOUDY    27  23  84 CALM      29.74S
MARSHALL       CLOUDY    25  20  81 SW16      29.74S WCI  12
REDWOOD FALLS  CLOUDY    27  20  75 SW12      29.74F WCI  17
OLIVIA         CLOUDY    28  23  80 SW9       29.73F WCI  20
PIPESTONE      CLEAR     21  16  79 SW6       29.74S WCI  14
WINDOM         PTCLDY    25  19  80 SW8       29.77S WCI  16
WORTHINGTON    CLEAR     20  16  84 SW16      29.76F WCI   6
JACKSON        CLOUDY    19  14  79 S12       29.78F WCI   7
TRACY          CLOUDY    25  21  84 SW13      29.74S WCI  14
SLAYTON        PTCLDY    21  18  91 SW12      29.74F WCI   9
$$
MNZ065>067-074>077-082>085-091>093-260800-
   South Central Minnesota

CITY           SKY/WX    TMP DP  RH WIND       PRES   REMARKS
MANKATO          N/A     20  15  81 S7        29.80F WCI  11
NEW ULM        CLOUDY    23  18  80 S7        29.77F WCI  15
ST JAMES       CLOUDY    21  18  86 S10       29.79F WCI  10
FAIRMONT       CLOUDY    19  15  84 S12       29.81F WCI   7
GLENCOE        CLOUDY    25  21  85 S12       29.76F WCI  14
FARIBAULT      MOCLDY    25  18  74 S9        29.81F WCI  15
OWATONNA       PTCLDY    23  16  74 S13       29.80F WCI  11
WASECA         CLEAR     21  16  79 S10       29.82S WCI  10
ALBERT LEA     CLOUDY    27  18  69 S13       29.81F WCI  16
$$
MNZ078>079-086>088-094>096-260800-
   Southeast Minnesota

CITY           SKY/WX    TMP DP  RH WIND       PRES   REMARKS
ROCHESTER      CLOUDY    22  17  81 S16       29.83F WCI   8
RED WING       CLOUDY    27  14  59 SW8       29.83F WCI  18
STANTON        CLOUDY    24  17  74 S12G17    29.80F WCI  13
WINONA         CLOUDY    27  18  69 S5        29.89F WCI  21
AUSTIN         CLOUDY    23  18  80 S9        29.83F WCI  13
PRESTON        CLOUDY    23  17  76 S13       29.85F WCI  11
$$
ABBREVIATIONS USED IN REMARKS
   TC - TEMPERATURES IN CELSIUS
  WCI - WIND CHILL INDEX
   HX - HEAT INDEX
  VSB - VISIBILITY
$$



USA.gov is the U.S. government's official web portal to all federal, state and local government web resources and services.